Theta_e
296 291 288 292 293 294 291 290 289 291 294 292 291 295 299 301 302 300 303 304 309 311 309 314 317 322 329 332 332 330 329 330 332 331 331 333 331 333 334 335 335 334 334 332
291 287 294 296 293 292 291 288 287 290 293 292 288 290 297 299 300 298 297 302 304 303 305 304 310 312 309 312 316 326 330 330 330 331 331 332 332 335 334 335 335 335 334 333
288 290 295 294 291 290 289 288 287 287 289 291 290 289 293 297 298 295 295 296 298 302 302 300 298 301 303 301 304 310 317 326 331 332 332 333 335 334 334 332 332 333 333 333
289 294 292 292 290 291 285 292 290 288 288 284 288 285 289 295 290 293 295 296 295 296 297 297 297 295 295 297 301 305 311 317 324 332 330 329 331 329 331 331 332 332 332 332
285 288 291 288 289 292 287 292 291 289 286 285 285 285 285 294 288 291 294 294 294 293 293 293 293 294 293 296 300 302 306 308 311 315 321 331 331 332 333 332 331 331 332 332
287 294 293 291 292 292 292 289 288 288 285 279 285 284 281 286 291 291 294 292 292 291 291 291 291 293 293 295 298 299 300 300 306 309 311 313 319 323 329 330 331 332 333 330
286 287 291 294 288 291 290 286 279 278 278 278 282 281 283 288 289 291 293 290 289 290 290 289 289 290 290 291 293 296 296 295 299 301 302 305 308 315 315 319 324 328 323 317
280 280 288 292 290 287 288 286 280 273 275 277 281 279 283 289 289 289 289 289 288 288 288 288 288 288 288 289 291 293 294 295 297 299 298 299 301 304 305 306 308 308 308 308
280 281 289 292 292 291 285 283 286 279 276 279 280 282 287 289 288 288 287 288 287 286 286 287 287 287 287 288 289 291 292 294 295 298 298 296 296 298 298 299 300 301 302 303
285 280 287 289 292 291 288 289 281 282 275 274 277 279 282 286 287 287 287 286 286 286 286 286 286 286 287 287 288 290 291 292 293 295 296 296 295 295 294 295 295 296 297 299
286 285 283 288 285 285 285 284 284 283 281 276 275 279 288 287 288 288 288 287 287 286 286 285 285 285 286 287 287 287 289 290 292 293 293 294 293 293 292 292 291 292 293 294
286 284 281 282 287 288 287 286 285 281 277 279 279 280 290 289 290 290 289 288 287 286 285 285 285 285 285 286 286 287 288 288 289 291 291 290 290 290 289 289 289 290 289 290
286 280 278 279 282 286 285 287 286 285 284 279 278 280 290 290 290 290 290 289 287 286 284 284 284 284 284 285 285 286 287 287 288 289 289 289 288 287 286 286 287 288 288 286
288 280 277 277 279 284 283 285 285 286 283 280 280 282 286 288 288 289 290 291 288 287 285 284 284 283 283 283 284 285 285 287 287 288 287 286 286 286 286 286 286 286 286 286
286 278 279 278 280 282 284 284 284 283 282 284 282 284 287 289 287 288 290 290 288 287 285 285 284 283 283 283 283 284 285 286 286 286 285 284 285 286 285 285 285 285 285 286
283 278 278 275 278 282 280 283 283 282 282 281 283 283 288 288 290 290 290 289 288 288 288 286 284 283 283 282 282 282 283 283 284 284 283 283 284 284 284 284 284 285 285 285
279 277 278 275 273 276 276 280 282 282 284 283 281 284 286 286 286 288 287 290 289 289 288 286 285 284 283 283 282 281 282 283 283 282 282 282 281 281 281 282 283 283 283 284
275 274 274 274 274 271 275 278 279 282 283 284 283 285 285 284 285 286 288 289 289 289 288 287 286 285 284 283 282 281 281 281 281 281 280 281 281 281 281 281 281 282 282 282
279 276 270 274 273 272 275 276 278 281 281 284 284 282 282 285 288 286 285 286 286 287 289 288 287 285 284 283 282 281 281 280 280 279 279 280 280 280 280 280 280 281 281 281
276 275 277 270 272 270 274 278 281 282 276 282 282 281 282 285 281 286 286 284 285 285 285 285 284 283 282 282 281 280 280 280 279 279 278 279 279 280 279 279 279 279 280 279
270 269 271 269 271 274 276 279 281 274 275 281 282 282 282 281 284 286 283 284 284 283 283 283 283 282 282 280 280 279 279 279 279 279 278 278 279 278 279 278 278 279 278 278
273 273 271 265 270 270 276 279 277 280 280 281 282 283 282 283 283 283 282 282 283 283 282 281 281 280 280 280 280 279 279 279 278 278 277 277 277 278 278 278 277 277 278 277
272 274 275 273 276 277 277 280 282 282 283 282 283 283 283 283 283 282 283 281 281 281 280 280 281 279 279 279 280 279 279 277 276 276 275 275 276 277 277 277 276 276 276 276
274 272 274 274 277 275 278 279 279 281 282 282 283 283 283 284 283 281 280 280 279 279 278 278 278 278 278 279 279 281 278 277 276 275 274 274 275 275 275 277 277 277 276 275
276 274 274 274 277 276 278 278 282 281 280 280 280 282 283 282 282 281 281 280 279 278 276 275 276 277 278 278 279 280 278 276 276 275 274 274 274 274 274 275 275 275 275 276
275 276 276 277 280 281 282 280 279 278 278 280 281 280 279 279 281 280 280 280 278 277 275 274 275 276 276 276 277 278 277 277 275 274 273 274 274 274 274 274 273 274 275 276
Wind_Speed
17 9 17 20 8 4 14 13 6 6 4 4 2 12 14 9 7 5 3 5 7 8 5 6 6 7 4 7 8 10 11 10 8 6 6 7 7 7 6 6 9 9 8 8
11 17 17 17 9 16 17 18 5 6 5 3 2 5 10 9 7 8 9 0 6 7 8 8 8 10 11 9 8 1 8 10 9 6 6 6 7 7 7 7 8 9 9 9
14 13 17 18 12 15 15 13 11 6 6 2 2 3 11 7 2 10 11 9 10 7 8 6 7 10 10 9 8 6 6 5 9 11 7 7 7 5 6 5 5 7 9 10
7 14 17 19 16 16 10 10 14 12 7 3 4 3 9 8 5 4 5 9 9 7 7 8 8 10 11 10 9 8 6 7 3 7 9 11 9 9 8 7 4 5 7 7
4 14 19 15 12 6 9 11 12 9 5 4 4 2 5 10 6 4 1 7 8 7 7 9 10 12 10 9 7 7 7 7 7 6 5 8 8 6 6 5 6 4 3 4
4 4 9 8 8 14 19 19 14 6 3 3 6 3 4 6 1 5 4 6 6 5 6 7 7 7 8 7 7 8 7 8 7 6 6 7 5 3 4 4 4 3 4 3
5 4 3 15 18 14 13 10 5 4 3 2 1 3 6 4 2 2 3 9 5 2 5 6 6 6 9 10 9 7 9 9 8 8 8 7 6 3 4 3 0 4 3 1
4 8 5 8 10 10 13 7 3 6 7 6 3 5 5 4 1 3 5 7 5 3 5 5 6 7 9 8 9 10 9 8 8 7 8 7 8 5 4 6 4 4 4 4
3 6 3 2 5 14 5 5 3 6 3 4 5 2 2 2 4 5 5 6 5 4 4 4 7 9 8 9 10 9 7 7 8 8 7 8 8 8 7 7 6 4 5 4
1 6 3 5 6 4 5 6 2 1 6 4 4 3 3 1 2 5 4 4 5 5 4 6 7 8 7 8 6 8 7 7 7 7 6 6 8 8 7 7 7 7 6 5
2 1 3 2 3 5 5 5 4 3 3 3 5 3 3 3 1 5 6 4 3 4 5 5 5 6 5 6 6 6 7 7 7 7 7 7 8 8 8 8 7 7 7 7
3 5 7 4 3 3 3 4 2 2 2 3 3 3 3 4 5 5 6 6 5 4 4 4 4 4 5 6 6 6 5 6 6 6 6 8 8 8 9 9 8 8 8 8
1 3 6 4 2 2 2 1 3 5 1 3 1 5 3 2 5 4 6 6 6 6 5 3 3 4 5 5 5 5 6 6 5 5 6 7 8 9 9 9 8 8 9 10
4 5 4 3 4 3 4 3 2 3 2 4 3 10 5 3 3 2 3 5 7 6 6 4 4 3 4 4 4 5 5 5 5 6 7 7 8 8 8 8 9 9 8 10
4 5 6 7 4 3 3 6 3 3 2 1 7 8 9 5 3 3 3 3 5 6 7 6 6 5 4 4 4 5 5 5 5 6 7 8 7 7 8 8 8 9 10 10
4 4 2 4 8 5 6 6 6 4 4 6 5 3 3 4 3 4 5 1 3 4 5 6 6 6 6 6 5 4 5 5 6 6 7 7 7 7 8 8 8 9 10 10
3 5 2 2 5 2 4 2 3 3 2 6 5 4 5 4 1 2 4 3 3 4 5 7 7 7 6 6 6 6 4 5 6 6 6 6 6 7 8 8 9 9 9 9
4 4 3 2 2 1 3 1 3 0 3 5 4 6 4 4 3 0 2 3 2 1 3 5 7 8 8 7 7 7 6 5 5 5 6 6 7 7 7 8 8 8 8 8
7 4 5 3 1 4 0 4 5 5 5 5 3 4 4 4 7 3 1 1 3 5 2 3 5 7 8 8 8 9 8 7 6 5 5 5 5 7 7 8 7 7 7 7
6 9 3 2 3 5 2 1 1 1 3 5 4 3 2 4 4 4 1 1 1 1 2 4 7 7 7 6 7 7 7 7 7 6 5 5 5 5 6 6 6 5 6 6
4 5 3 2 0 4 4 2 1 3 1 7 6 5 3 2 3 3 0 2 1 1 3 6 7 7 7 8 7 6 6 6 6 7 7 7 6 6 6 5 4 5 5 6
0 3 2 2 1 4 6 3 5 1 2 5 4 4 3 2 1 1 0 0 2 2 3 5 7 7 7 8 8 7 7 5 6 5 5 6 7 5 5 6 5 4 5 5
1 2 0 7 2 0 5 1 1 2 5 6 5 4 3 2 1 1 1 2 2 1 2 3 5 6 7 8 8 7 7 8 7 5 4 4 3 4 4 5 5 4 4 4
4 4 3 1 2 9 8 4 5 3 3 3 3 5 5 3 2 3 3 3 3 3 4 3 5 7 8 7 6 5 8 8 8 7 6 5 5 4 3 3 3 4 4 4
1 7 4 6 7 4 10 11 9 10 4 4 3 3 5 3 6 5 4 4 4 4 4 5 7 7 7 7 7 6 7 7 7 5 5 5 4 5 5 3 3 4 3 4
8 8 7 6 5 2 3 0 3 8 9 10 6 4 5 5 9 3 6 3 3 4 4 6 7 6 7 8 7 6 8 9 8 7 6 6 5 5 4 4 3 4 5 8
Wind_Direction
194 180 193 188 188 155 129 123 124 94 62 78 48 215 244 298 313 14 226 177 158 129 83 72 82 65 162 183 187 187 192 194 183 178 192 197 200 207 203 217 215 205 203 199
153 198 189 173 169 162 133 126 113 79 108 90 83 256 239 272 289 16 359 112 131 125 90 61 71 73 57 56 31 346 200 193 196 187 198 206 202 214 210 202 201 202 196 195
163 156 153 146 151 139 122 156 155 136 135 69 159 226 213 250 218 43 44 60 58 105 113 87 83 78 68 43 27 13 342 287 192 198 200 203 200 206 194 188 196 203 195 193
86 147 149 162 163 147 108 137 133 135 167 173 270 165 203 191 75 55 38 46 63 45 65 63 53 63 49 34 21 16 13 16 8 212 203 208 213 207 207 207 200 201 208 206
77 155 150 146 146 129 128 143 116 108 114 161 180 233 116 178 137 177 232 60 64 49 39 50 49 52 52 38 32 21 13 28 17 30 2 227 222 253 221 205 180 178 181 195
87 113 159 140 143 113 118 100 80 107 128 176 166 243 125 132 220 185 153 83 70 59 62 57 56 61 65 55 47 47 37 19 15 33 30 38 63 337 227 210 220 196 206 145
63 79 129 136 109 123 134 132 138 149 174 114 133 208 64 86 23 201 172 130 109 80 67 57 55 53 51 39 37 40 40 28 14 32 40 42 32 31 24 17 46 167 133 86
17 118 99 178 137 161 162 168 195 151 166 125 131 210 110 59 108 81 87 115 119 60 80 70 51 50 52 43 35 41 37 32 24 32 38 40 38 49 50 39 45 52 72 68
106 63 21 120 110 149 164 203 27 108 49 148 155 112 178 186 85 87 103 134 134 97 40 51 54 46 40 38 37 33 34 39 32 30 39 43 43 46 50 48 50 52 56 73
102 111 24 99 120 70 175 145 175 62 144 122 154 153 91 111 53 134 141 133 125 116 88 40 37 43 39 37 32 40 37 44 38 46 41 49 58 55 53 52 55 54 53 65
126 12 114 158 14 142 140 183 42 79 16 111 144 98 15 10 325 124 127 136 138 109 89 73 63 61 51 44 34 42 39 40 44 46 53 57 55 63 63 61 52 56 58 56
28 66 130 65 32 21 336 172 207 243 153 48 42 93 41 40 68 109 139 149 136 110 108 101 96 77 58 54 38 44 41 49 39 45 57 61 66 67 69 65 62 56 67 64
72 48 115 103 351 53 67 84 149 104 77 123 142 139 79 75 101 120 152 156 148 138 133 106 76 70 69 67 57 51 49 54 53 58 63 66 69 72 71 69 67 67 72 67
91 61 31 139 67 79 151 156 79 89 123 141 49 142 172 150 109 135 171 159 147 144 146 140 133 98 80 78 71 56 55 52 65 72 71 64 60 66 76 79 76 72 72 78
65 86 88 69 46 97 128 163 140 96 118 81 151 147 157 150 99 72 41 128 153 166 174 171 161 146 124 84 74 80 71 58 61 77 80 73 66 71 74 72 76 78 76 78
22 128 163 63 25 118 123 120 111 89 116 89 125 116 103 81 88 74 50 67 206 198 189 172 163 161 153 138 115 84 77 73 78 79 81 86 88 82 78 80 76 77 79 82
65 134 82 71 349 332 100 177 141 126 163 143 169 118 150 152 89 332 342 343 289 229 195 180 174 171 158 145 136 117 98 92 93 99 89 83 86 84 82 83 84 78 78 84
111 85 17 105 313 186 60 311 333 126 174 189 126 141 152 133 127 191 323 299 334 263 206 185 170 162 156 151 140 130 122 105 104 99 97 97 99 92 86 88 88 89 88 84
44 106 89 127 154 317 129 197 179 189 216 209 202 137 121 132 149 130 49 350 318 334 327 191 170 161 163 163 154 144 140 137 130 125 111 98 100 104 103 99 98 93 95 91
47 53 84 135 156 203 40 118 235 236 243 171 164 133 108 153 164 109 132 322 356 33 58 144 152 145 154 156 155 154 154 151 148 142 122 113 112 114 112 112 108 98 95 94
17 13 65 127 206 274 239 192 236 180 29 150 153 143 135 96 60 87 169 172 286 23 128 140 155 166 168 160 162 162 167 181 160 148 146 142 140 134 133 123 115 116 112 108
347 128 133 127 223 264 166 123 200 43 105 145 153 161 157 136 251 294 345 57 130 149 143 164 162 166 163 170 175 174 188 159 156 157 155 152 149 148 146 138 132 137 137 128
272 223 229 214 227 349 219 287 284 205 160 177 168 174 169 168 215 14 1 326 323 333 163 171 181 170 179 183 190 186 180 163 159 157 149 144 136 135 141 147 147 148 165 169
214 172 237 300 193 233 237 228 248 224 240 194 192 174 185 233 230 250 232 232 239 202 201 187 183 192 198 196 196 199 162 169 163 165 165 162 155 145 148 161 167 181 185 189
23 157 183 261 265 255 240 229 224 219 214 213 196 205 218 229 262 236 250 233 224 221 201 192 196 202 202 186 196 177 167 160 171 172 168 173 179 185 169 183 194 208 216 214
187 189 191 230 217 223 260 265 200 194 212 218 204 228 235 218 247 224 250 234 224 206 194 210 211 206 199 191 193 179 179 182 170 179 182 186 184 183 186 188 194 230 238 225